Location: Bonnesvalyn
(49.1218°N, 3.3177°E)
Time: 13:42:05
(UTC+00:00)

USA 81 - Pass Details

Date: 09 February 2023
Orbit: 784 x 788 km, 85.0° (Epoch: 19 March)

Event Time Altitude Azimuth Distance (km) Brightness Sun altitude
Rises 18:39:18 0° 182° (S) 3,269 7.3 -17.2°
Reaches altitude 10° 18:41:39 10° 182° (S) 2,344 6.6 -17.6°
Maximum altitude 18:46:55 86° 95° (E) 796 4.0 -18.5°
Drops below altitude 10° 18:52:14 10° 7° (N) 2,359 6.5 -19.3°
Sets 18:54:36 0° 7° (N) 3,292 7.2 -19.7°
